[[{"header":{"parameterUnit":"m.s-1","parameterCategory":2,"la1":30.2991,"la2":30.254,"lo1":-89.0895,"lo2":-89.0444,"dy":0.0017,"dx":0.0017,"nx":28,"ny":28,"refTime":"2025-12-24T03:00:00:Z","depth":"0","parameterNumber":2,"parameterNumberName":"U-component_of_CURRENTS"},"data":[0,0,0,0,0,0,0,0,0,0,0,0,0,0,0,0,0,0,0,0,0,0,0,0,0,0,0,0,0,0,0,0,0,0,0,0,0,0,0,0,0,0,0,0,0,0,0,0,0,0,0,0,0,0,0,0,0,0,-0.2523,-0.2523,0,-0.2553,-0.2554,-0.2554,-0.2547,-0.2546,-0.2546,-0.2546,-0.2512,-0.2511,-0.2511,0,0,0,0,0,0,0,0,0,0,0,0,0,-0.2406,-0.2408,-0.2523,-0.2523,-0.2524,-0.2553,-0.2554,-0.2554,-0.2547,-0.2546,-0.2546,-0.2546,-0.2512,-0.2511,-0.251,0,0,0,0,0,0,0,0,0,0,0,0,0,-0.2446,-0.2409,-0.2523,-0.2526,-0.2527,-0.2553,-0.2554,-0.2554,-0.2547,-0.2546,-0.2546,-0.2546,-0.2512,-0.2511,-0.251,-0.2515,0,0,-0.2508,-0.2507,0,0,0,0,0,0,0,0,-0.2444,-0.245,-0.2525,-0.2526,-0.2527,-0.2548,-0.25,-0.2538,-0.2547,-0.2536,-0.2546,-0.2545,-0.252,-0.2518,-0.2522,-0.2513,-0.2512,-0.2508,-0.2507,-0.2507,-0.2506,0,0,0,0,0,0,0,-0.2441,-0.2449,-0.2532,-0.2526,-0.2527,-0.2509,-0.2514,-0.2507,-0.2527,-0.2537,-0.2538,-0.2546,-0.252,-0.2523,-0.2521,-0.2511,-0.2508,-0.2507,-0.2506,-0.2506,-0.2516,-0.2517,0,0,0,0,0,0,-0.2447,-0.2447,-0.2531,-0.2533,-0.2487,-0.2511,-0.2517,-0.254,-0.2529,-0.2528,-0.2546,-0.2545,-0.2525,-0.2522,-0.252,-0.254,-0.2507,-0.2506,-0.2505,-0.2515,-0.2516,-0.2517,0,0,0,0,0,0,-0.2445,-0.2455,-0.253,-0.2491,-0.25,-0.2515,-0.2539,-0.2541,-0.2546,-0.2537,-0.2534,-0.2551,-0.2525,-0.2521,-0.2526,-0.2538,-0.2505,-0.2505,-0.2514,-0.2515,-0.2517,-0.2569,0,0,0,0,0,0,-0.2441,-0.2454,-0.2468,-0.2493,-0.2503,-0.2551,-0.254,-0.2542,-0.2553,-0.2552,-0.254,-0.2536,-0.2524,-0.2527,-0.2525,-0.2536,-0.2504,-0.2513,-0.2515,-0.2516,-0.2566,-0.2572,-0.2577,0,0,0,0,0,-0.2437,-0.2462,-0.2469,-0.2479,-0.2524,-0.2552,-0.2555,-0.256,-0.2554,-0.2562,-0.2558,-0.2537,-0.2535,-0.2528,-0.2524,-0.2535,-0.2512,-0.2514,-0.2516,-0.2564,-0.2571,-0.2577,0,0,0,0,0,0,-0.2414,-0.2465,-0.2473,-0.251,-0.2531,-0.2552,-0.2559,-0.2564,-0.2568,-0.2564,-0.2549,-0.2546,-0.2553,-0.2539,-0.2531,-0.2543,-0.2519,-0.252,-0.2557,-0.2563,-0.2568,-0.2566,-0.2503,0,0,0,0,0,-0.2418,-0.2449,-0.2488,-0.2513,-0.2527,-0.2543,-0.2553,-0.2561,-0.2571,-0.2572,-0.2565,-0.2558,-0.2559,-0.2557,-0.2552,-0.256,-0.2543,-0.2564,-0.2569,-0.2574,-0.2571,-0.2572,-0.2577,-0.2523,-0.2523,-0.2523,0,0,-0.2411,-0.2445,-0.246,-0.251,-0.2523,-0.2554,-0.2547,-0.2569,-0.259,-0.2567,-0.2583,-0.2574,-0.2565,-0.2577,-0.2578,-0.2566,-0.2579,-0.2576,-0.258,-0.2574,-0.2575,-0.258,-0.2584,-0.2524,-0.2524,-0.2524,0,0,-0.2419,-0.2448,-0.2479,-0.2506,-0.2542,-0.2557,-0.2566,-0.2593,-0.2599,-0.2621,-0.2608,-0.2609,-0.2611,-0.2608,-0.2607,-0.2636,-0.2607,-0.2634,-0.2659,-0.2661,-0.2665,-0.2669,-0.265,-0.2652,-0.2637,-0.2637,-0.2637,0,-0.2409,-0.2461,-0.2487,-0.2526,-0.255,-0.2562,-0.2596,-0.261,-0.2632,-0.2644,-0.2631,-0.2647,-0.2627,-0.2651,-0.2653,-0.2648,-0.2638,-0.2637,-0.2668,-0.2671,-0.2674,-0.2654,-0.2655,-0.264,-0.2639,-0.2639,-0.2639,0,-0.2444,-0.2485,-0.2503,-0.2562,-0.2588,-0.2617,-0.2649,-0.2668,-0.2675,-0.2691,-0.2715,-0.27,-0.2709,-0.2703,-0.2682,-0.2697,-0.268,-0.2675,-0.2652,-0.2683,-0.2659,-0.2659,-0.2644,-0.2643,-0.2642,-0.2641,0,0,-0.242,-0.2513,-0.2516,-0.2554,-0.2612,-0.2638,-0.2677,-0.2721,-0.2747,-0.2762,-0.2795,-0.2788,-0.2779,-0.2775,-0.2755,-0.2746,-0.2742,-0.2715,-0.2714,-0.2696,-0.2735,-0.267,-0.2664,-0.2748,-0.2748,-0.2749,-0.2709,0,-0.2437,-0.2515,-0.2556,-0.2618,-0.2661,-0.2696,-0.2733,-0.2772,-0.2793,-0.2824,-0.2824,-0.2837,-0.281,-0.2806,-0.2801,-0.2755,-0.2746,-0.2752,-0.2708,-0.2706,-0.2645,-0.2663,-0.2481,-0.2426,-0.2709,-0.2709,-0.2709,0,-0.2454,-0.251,-0.2577,-0.2664,-0.2684,-0.2718,-0.2781,-0.2817,-0.2864,-0.288,-0.2907,-0.2903,-0.2897,-0.2862,-0.2826,-0.2834,-0.2785,-0.2749,-0.2747,-0.2667,-0.2642,-0.2442,-0.2415,-0.2306,-0.2708,-0.2709,-0.2709,0,-0.2423,-0.252,-0.2573,-0.2603,-0.27,-0.273,-0.2773,-0.283,-0.286,-0.2906,-0.2923,-0.2943,-0.293,-0.2902,-0.2832,-0.2827,-0.2784,-0.2771,-0.2673,-0.2668,-0.2491,-0.247,-0.2349,-0.2744,-0.2744,-0.2744,-0.2745,0,-0.2428,-0.2469,-0.2564,-0.2594,-0.2656,-0.2722,-0.2776,-0.2822,-0.2877,-0.2911,-0.294,-0.2953,-0.2935,-0.2913,-0.2856,-0.2765,-0.2809,-0.2673,-0.2656,-0.2504,-0.2485,-0.2365,-0.2389,-0.2743,-0.2743,-0.2744,-0.2744,0,-0.2386,-0.2449,-0.2516,-0.2615,-0.2645,-0.2685,-0.2773,-0.2815,-0.2862,-0.2904,-0.2915,-0.2949,-0.2924,-0.2905,-0.2844,-0.2773,-0.2629,-0.2663,-0.2478,-0.2439,-0.2234,-0.227,-0.2219,-0.2168,-0.2538,-0.2537,-0.2535,0,-0.2376,-0.2403,-0.2508,-0.2553,-0.2599,-0.2667,-0.2717,-0.2793,-0.2834,-0.2892,-0.2908,-0.2909,-0.2895,-0.2803,-0.268,-0.2583,-0.2566,-0.2358,-0.2311,-0.2192,-0.222,-0.2272,-0.2237,-0.2092,-0.2087,-0.2083,-0.208,0,-0.2349,-0.2376,-0.2436,-0.2522,-0.2584,-0.2649,-0.2722,-0.2744,-0.2824,-0.2843,-0.2851,-0.2837,-0.2749,-0.2555,-0.2442,-0.2362,-0.2256,-0.227,-0.2186,-0.1895,-0.1904,-0.1855,-0.2153,-0.2044,-0.2047,-0.205,-0.2052,-0.2053,-0.2312,-0.2344,-0.2415,-0.2492,-0.2561,-0.2611,-0.2607,-0.2668,-0.2688,-0.2652,-0.273,-0.2583,-0.239,-0.2193,-0.2121,-0.1831,-0.2016,-0.1711,-0.1774,-0.1844,-0.1765,-0.1986,-0.1845,-0.1847,-0.1849,-0.1851,-0.1853,0,-0.2267,-0.2315,-0.2387,-0.2461,-0.2497,-0.2549,-0.2592,-0.2538,-0.2494,-0.2415,-0.2374,-0.2049,-0.1863,-0.1688,-0.141,-0.1305,-0.13,-0.1287,-0.1276,-0.1273,-0.1449,-0.1393,-0.1098,-0.1098,-0.1098,-0.1098,-0.1099,-0.1099,-0.2247,-0.2289,-0.2333,-0.2373,-0.2409,-0.2375,-0.2358,-0.2265,-0.2147,-0.1855,-0.1583,-0.1429,-0.125,-0.119,-0.0987,-0.0948,-0.0938,-0.0944,-0.1047,-0.1098,-0.114,-0.1181,-0.1126,-0.0781,-0.0781,-0.0749,-0.0749,-0.0749]},{"header":{"parameterUnit":"m.s-1","parameterCategory":2,"la1":30.2991,"la2":30.254,"lo1":-89.0895,"lo2":-89.0444,"dy":0.0017,"dx":0.0017,"nx":28,"ny":28,"refTime":"2025-12-24T03:00:00:Z","depth":"0","parameterNumber":3,"parameterNumberName":"V-component_of_CURRENTS"},"data":[0,0,0,0,0,0,0,0,0,0,0,0,0,0,0,0,0,0,0,0,0,0,0,0,0,0,0,0,0,0,0,0,0,0,0,0,0,0,0,0,0,0,0,0,0,0,0,0,0,0,0,0,0,0,0,0,0,0,-0.068,-0.0679,0,-0.063,-0.063,-0.0629,-0.0603,-0.0603,-0.0603,-0.0603,-0.0587,-0.0586,-0.0586,0,0,0,0,0,0,0,0,0,0,0,0,0,-0.0735,-0.0734,-0.068,-0.0679,-0.0679,-0.063,-0.0629,-0.0629,-0.0603,-0.0603,-0.0603,-0.0603,-0.0587,-0.0586,-0.0586,0,0,0,0,0,0,0,0,0,0,0,0,0,-0.0702,-0.0734,-0.068,-0.0659,-0.0657,-0.063,-0.0629,-0.0629,-0.0603,-0.0603,-0.0603,-0.0603,-0.0587,-0.0586,-0.0586,-0.0586,0,0,-0.0584,-0.0584,0,0,0,0,0,0,0,0,-0.0704,-0.07,-0.0663,-0.0661,-0.0658,-0.0622,-0.0643,-0.0616,-0.0603,-0.0625,-0.0603,-0.0603,-0.0601,-0.0599,-0.0591,-0.0586,-0.0585,-0.0584,-0.0584,-0.0584,-0.0584,0,0,0,0,0,0,0,-0.0706,-0.0702,-0.0661,-0.0662,-0.0659,-0.0646,-0.0642,-0.0637,-0.0616,-0.0623,-0.0621,-0.0614,-0.06,-0.0592,-0.0591,-0.0585,-0.0584,-0.0584,-0.0584,-0.0584,-0.0537,-0.0536,0,0,0,0,0,0,-0.0711,-0.0704,-0.0663,-0.066,-0.068,-0.0645,-0.064,-0.0634,-0.0615,-0.0611,-0.0614,-0.0613,-0.0593,-0.0591,-0.059,-0.0575,-0.0584,-0.0583,-0.0583,-0.0538,-0.0537,-0.0536,0,0,0,0,0,0,-0.0713,-0.0708,-0.0665,-0.068,-0.0673,-0.0645,-0.0638,-0.0634,-0.0623,-0.0608,-0.0605,-0.0608,-0.0593,-0.0591,-0.0582,-0.0575,-0.0583,-0.0583,-0.0539,-0.0537,-0.0536,-0.0555,0,0,0,0,0,0,-0.0715,-0.0709,-0.0711,-0.068,-0.0673,-0.0653,-0.0638,-0.0633,-0.0619,-0.0617,-0.0602,-0.06,-0.0592,-0.0583,-0.0582,-0.0574,-0.0582,-0.054,-0.0538,-0.0537,-0.0555,-0.0554,-0.0553,0,0,0,0,0,-0.0717,-0.0723,-0.0711,-0.0706,-0.0674,-0.0653,-0.0648,-0.0628,-0.0619,-0.0617,-0.0603,-0.0601,-0.057,-0.0583,-0.0581,-0.0573,-0.0541,-0.0539,-0.0537,-0.0556,-0.0554,-0.0553,0,0,0,0,0,0,-0.0756,-0.072,-0.0706,-0.0703,-0.068,-0.0648,-0.0647,-0.0629,-0.0615,-0.0615,-0.0599,-0.0596,-0.0583,-0.0573,-0.0587,-0.0551,-0.0551,-0.0549,-0.0566,-0.0565,-0.0564,-0.058,-0.0582,0,0,0,0,0,-0.0763,-0.0754,-0.0719,-0.0718,-0.0707,-0.0676,-0.0666,-0.0649,-0.063,-0.0624,-0.0611,-0.0592,-0.0572,-0.0566,-0.0552,-0.0541,-0.0537,-0.053,-0.0529,-0.0528,-0.0538,-0.05,-0.0497,-0.0529,-0.0529,-0.0529,0,0,-0.078,-0.0758,-0.0755,-0.0725,-0.0707,-0.0695,-0.067,-0.0657,-0.0646,-0.0626,-0.0615,-0.0593,-0.0568,-0.0551,-0.0544,-0.0544,-0.0521,-0.0525,-0.0525,-0.0536,-0.0498,-0.0495,-0.0492,-0.0527,-0.0527,-0.0528,0,0,-0.0809,-0.0788,-0.0789,-0.0768,-0.0737,-0.0715,-0.0711,-0.0678,-0.0662,-0.0645,-0.0622,-0.0594,-0.0574,-0.0548,-0.0533,-0.0516,-0.0517,-0.0508,-0.0519,-0.0482,-0.048,-0.0477,-0.0494,-0.0493,-0.0507,-0.0507,-0.0507,0,-0.0834,-0.0826,-0.0788,-0.0781,-0.077,-0.0725,-0.0726,-0.07,-0.0669,-0.0658,-0.0646,-0.0591,-0.0569,-0.0538,-0.0529,-0.0515,-0.0514,-0.0531,-0.0483,-0.048,-0.0477,-0.0495,-0.0493,-0.0507,-0.0507,-0.0507,-0.0507,0,-0.0857,-0.0851,-0.0852,-0.0824,-0.0805,-0.0801,-0.0756,-0.074,-0.0712,-0.0683,-0.0646,-0.0605,-0.0573,-0.0551,-0.0538,-0.0504,-0.0519,-0.0488,-0.0492,-0.0476,-0.0495,-0.0493,-0.0508,-0.0508,-0.0508,-0.0508,0,0,-0.0923,-0.0879,-0.088,-0.0876,-0.083,-0.082,-0.0797,-0.0766,-0.0754,-0.0705,-0.0686,-0.0629,-0.06,-0.0579,-0.0546,-0.0511,-0.0495,-0.0498,-0.0496,-0.0529,-0.0456,-0.0394,-0.0387,-0.0455,-0.0454,-0.0453,-0.0487,0,-0.096,-0.0962,-0.0922,-0.0927,-0.0928,-0.0874,-0.0857,-0.0818,-0.0777,-0.0747,-0.0681,-0.065,-0.061,-0.0595,-0.055,-0.0507,-0.0487,-0.0491,-0.0456,-0.0456,-0.0412,-0.038,-0.0261,-0.0273,-0.0486,-0.0485,-0.0485,0,-0.1003,-0.0996,-0.101,-0.098,-0.0975,-0.0966,-0.0933,-0.0909,-0.0844,-0.0811,-0.0755,-0.0704,-0.065,-0.061,-0.0536,-0.0543,-0.0508,-0.0473,-0.0472,-0.0406,-0.0389,-0.0316,-0.0262,-0.0093,-0.0483,-0.0483,-0.0483,0,-0.1081,-0.1061,-0.1076,-0.1067,-0.1024,-0.1021,-0.0996,-0.0937,-0.0917,-0.0853,-0.0834,-0.0751,-0.0723,-0.0645,-0.0572,-0.0554,-0.0502,-0.0462,-0.0383,-0.0381,-0.0268,-0.0256,-0.0052,-0.0412,-0.0412,-0.0412,-0.0412,0,-0.1147,-0.1157,-0.1115,-0.1127,-0.1142,-0.1085,-0.1085,-0.1047,-0.0988,-0.0971,-0.0877,-0.0857,-0.0727,-0.0674,-0.0598,-0.0495,-0.0522,-0.0387,-0.0369,-0.0273,-0.0261,-0.0099,-0.0071,-0.0414,-0.0413,-0.0413,-0.0413,0,-0.1234,-0.1208,-0.1223,-0.1191,-0.1183,-0.1195,-0.1147,-0.1138,-0.1079,-0.1055,-0.1039,-0.0946,-0.0871,-0.0757,-0.0649,-0.0535,-0.0338,-0.0404,-0.0327,-0.0296,-0.0015,0.0005,0.0131,0.0211,-0.0297,-0.0295,-0.0294,0,-0.1277,-0.1296,-0.1283,-0.1295,-0.1284,-0.128,-0.1271,-0.1201,-0.118,-0.1117,-0.1113,-0.1036,-0.0986,-0.0806,-0.0572,-0.0412,-0.0318,-0.0209,-0.0119,0.0026,0.0061,0.0057,0.0115,-0.0003,0.0001,0.0004,0.0006,0,-0.1358,-0.1353,-0.1365,-0.1391,-0.1394,-0.1384,-0.1362,-0.1358,-0.1279,-0.1255,-0.1231,-0.1193,-0.0973,-0.0709,-0.0455,-0.033,-0.0053,-0.0141,0.0016,0.0319,0.032,0.0398,-0.0059,0.0033,0.003,0.0028,0.0027,0.0026,-0.1412,-0.1446,-0.146,-0.1484,-0.1485,-0.148,-0.1473,-0.1443,-0.1423,-0.1316,-0.1299,-0.1096,-0.0749,-0.0351,-0.023,0.0235,0.0123,0.0401,0.0405,0.0381,0.0511,0.0087,0.0207,0.0205,0.0204,0.0203,0.0202,0,-0.1483,-0.151,-0.1543,-0.1564,-0.1573,-0.1545,-0.152,-0.1484,-0.1469,-0.1249,-0.1177,-0.0622,-0.0291,0.0086,0.0623,0.0807,0.083,0.0886,0.0944,0.0972,0.0633,0.0707,0.0935,0.0935,0.0935,0.0934,0.0934,0.0934,-0.1521,-0.1581,-0.1597,-0.1631,-0.1633,-0.1618,-0.1598,-0.153,-0.1345,-0.0932,-0.0476,-0.0155,0.0379,0.0851,0.127,0.1299,0.1414,0.1377,0.1385,0.121,0.1167,0.1125,0.121,0.1539,0.154,0.1782,0.1785,0.1787]}],[{"header":{"parameterUnit":"m.s-1","parameterCategory":2,"la1":30.2991,"la2":30.254,"lo1":-89.0895,"lo2":-89.0444,"dy":0.0017,"dx":0.0017,"nx":28,"ny":28,"refTime":"2025-12-24T03:00:00:Z","depth":"2","parameterNumber":2,"parameterNumberName":"U-component_of_CURRENTS"},"data":[0,0,0,0,0,0,0,0,0,0,0,0,0,0,0,0,0,0,0,0,0,0,0,0,0,0,0,0,0,0,0,0,0,0,0,0,0,0,0,0,0,0,0,0,0,0,0,0,0,0,0,0,0,0,0,0,0,0,-0.2033,-0.2035,0,-0.2106,-0.2105,-0.2104,-0.2087,-0.2088,-0.2089,-0.2089,-0.2085,-0.2084,-0.2083,0,0,0,0,0,0,0,0,0,0,0,0,0,-0.1887,-0.1888,-0.2032,-0.2036,-0.2039,-0.2106,-0.2105,-0.2103,-0.2087,-0.2088,-0.2089,-0.209,-0.2085,-0.2084,-0.2083,0,0,0,0,0,0,0,0,0,0,0,0,0,-0.1931,-0.1888,-0.2032,-0.2056,-0.2061,-0.2106,-0.2105,-0.2103,-0.2087,-0.2088,-0.2089,-0.209,-0.2086,-0.2085,-0.2083,-0.2051,0,0,-0.2079,-0.2079,0,0,0,0,0,0,0,0,-0.1929,-0.1933,-0.205,-0.2055,-0.2061,-0.211,-0.2054,-0.209,-0.2086,-0.2051,-0.2089,-0.2091,-0.2101,-0.2098,-0.2076,-0.2051,-0.205,-0.2079,-0.2078,-0.2078,-0.2077,0,0,0,0,0,0,0,-0.1926,-0.1931,-0.2037,-0.2053,-0.206,-0.2069,-0.2073,-0.2059,-0.2048,-0.2054,-0.2059,-0.2105,-0.21,-0.2077,-0.2076,-0.205,-0.2079,-0.2078,-0.2077,-0.2077,-0.2153,-0.2155,0,0,0,0,0,0,-0.1963,-0.1928,-0.2035,-0.2042,-0.2024,-0.2072,-0.2076,-0.2073,-0.205,-0.2056,-0.2105,-0.2105,-0.2079,-0.2078,-0.2076,-0.2159,-0.2078,-0.2077,-0.2076,-0.215,-0.2153,-0.2156,0,0,0,0,0,0,-0.1959,-0.197,-0.2033,-0.2009,-0.202,-0.2076,-0.2071,-0.2074,-0.2065,-0.2094,-0.2093,-0.2097,-0.208,-0.2078,-0.2142,-0.2154,-0.2076,-0.2075,-0.2147,-0.2151,-0.2155,-0.2246,0,0,0,0,0,0,-0.1953,-0.1966,-0.1976,-0.201,-0.2024,-0.2089,-0.2072,-0.2076,-0.2103,-0.2103,-0.2087,-0.2087,-0.2081,-0.2145,-0.2141,-0.2151,-0.2074,-0.2143,-0.2148,-0.2153,-0.2239,-0.2253,-0.2264,0,0,0,0,0,-0.1946,-0.1972,-0.1974,-0.199,-0.2033,-0.2093,-0.2098,-0.2126,-0.2102,-0.2112,-0.2142,-0.2088,-0.2174,-0.2148,-0.2142,-0.2151,-0.214,-0.2147,-0.2153,-0.2234,-0.225,-0.2264,0,0,0,0,0,0,-0.196,-0.1976,-0.1978,-0.2018,-0.2067,-0.21,-0.214,-0.2126,-0.2143,-0.2166,-0.2133,-0.2139,-0.2198,-0.2171,-0.2142,-0.2194,-0.2142,-0.2148,-0.2205,-0.222,-0.2233,-0.2218,-0.2073,0,0,0,0,0,-0.1959,-0.1967,-0.2002,-0.2056,-0.207,-0.209,-0.2117,-0.2143,-0.2178,-0.2183,-0.2196,-0.2208,-0.2212,-0.2219,-0.2241,-0.226,-0.2193,-0.2263,-0.2275,-0.2286,-0.2275,-0.22,-0.2203,-0.2177,-0.2177,-0.2177,0,0,-0.2016,-0.2014,-0.2039,-0.2059,-0.209,-0.2122,-0.2103,-0.2179,-0.2217,-0.2184,-0.2255,-0.2263,-0.2235,-0.2288,-0.2306,-0.2268,-0.2266,-0.2294,-0.2302,-0.2285,-0.2207,-0.2208,-0.221,-0.2181,-0.218,-0.218,0,0,-0.2086,-0.2093,-0.2093,-0.2107,-0.2166,-0.2194,-0.2212,-0.2263,-0.2289,-0.236,-0.2351,-0.2382,-0.2395,-0.2391,-0.2371,-0.2456,-0.2345,-0.2455,-0.2485,-0.2414,-0.2414,-0.2413,-0.2348,-0.234,-0.2445,-0.2445,-0.2445,0,-0.2139,-0.2129,-0.2125,-0.2112,-0.2153,-0.2215,-0.2244,-0.2283,-0.2369,-0.2385,-0.2414,-0.2425,-0.2434,-0.2415,-0.2477,-0.2477,-0.2418,-0.2425,-0.2424,-0.2422,-0.2419,-0.2353,-0.2343,-0.245,-0.245,-0.2449,-0.2449,0,-0.2154,-0.2175,-0.2197,-0.2184,-0.2223,-0.2293,-0.2346,-0.2396,-0.2446,-0.2481,-0.2524,-0.2549,-0.2528,-0.2547,-0.2543,-0.2524,-0.2484,-0.2456,-0.2374,-0.2426,-0.2355,-0.2343,-0.2458,-0.2456,-0.2454,-0.2453,0,0,-0.2186,-0.2199,-0.2202,-0.2198,-0.2267,-0.2291,-0.2373,-0.2431,-0.2425,-0.2542,-0.2513,-0.2594,-0.2595,-0.2576,-0.2563,-0.2531,-0.25,-0.2499,-0.2492,-0.2412,-0.2336,-0.2244,-0.2221,-0.2458,-0.2456,-0.2455,-0.2299,0,-0.2201,-0.2189,-0.2201,-0.2255,-0.2264,-0.232,-0.2364,-0.243,-0.2482,-0.249,-0.2527,-0.2534,-0.2603,-0.2577,-0.2569,-0.2498,-0.247,-0.2545,-0.2316,-0.231,-0.2201,-0.2205,-0.2083,-0.1927,-0.2286,-0.2284,-0.2283,0,-0.214,-0.2165,-0.2204,-0.2231,-0.2235,-0.2274,-0.2298,-0.2361,-0.24,-0.2425,-0.2448,-0.2464,-0.2467,-0.2501,-0.2423,-0.246,-0.2423,-0.2382,-0.2373,-0.2237,-0.2194,-0.1932,-0.1891,-0.2261,-0.2263,-0.2265,-0.2266,0,-0.2071,-0.2121,-0.2164,-0.218,-0.2253,-0.2258,-0.2298,-0.234,-0.236,-0.2383,-0.2353,-0.2373,-0.2346,-0.2314,-0.2302,-0.2338,-0.2177,-0.2194,-0.2079,-0.2072,-0.1897,-0.1877,-0.2132,-0.2132,-0.2132,-0.2133,-0.2133,0,-0.2012,-0.2032,-0.2129,-0.2143,-0.2155,-0.222,-0.221,-0.2231,-0.226,-0.2238,-0.2323,-0.2251,-0.2298,-0.2231,-0.223,-0.2106,-0.2116,-0.2068,-0.2015,-0.1931,-0.1916,-0.215,-0.2155,-0.2127,-0.2128,-0.2129,-0.213,0,-0.1908,-0.1985,-0.2005,-0.2095,-0.2117,-0.2113,-0.2143,-0.2112,-0.2177,-0.212,-0.2128,-0.2147,-0.2054,-0.2068,-0.198,-0.1979,-0.1887,-0.1849,-0.1761,-0.1701,-0.1849,-0.1861,-0.1675,-0.167,-0.1666,-0.1663,-0.166,0,-0.1841,-0.1869,-0.1942,-0.1931,-0.1971,-0.1992,-0.1983,-0.2061,-0.2022,-0.2022,-0.1953,-0.191,-0.1824,-0.1691,-0.1666,-0.1596,-0.1722,-0.1463,-0.1525,-0.183,-0.1797,-0.1816,-0.1832,-0.1339,-0.1334,-0.133,-0.1326,0,-0.1753,-0.1792,-0.1806,-0.1795,-0.1784,-0.1761,-0.1748,-0.1738,-0.1805,-0.1768,-0.169,-0.1646,-0.1529,-0.1403,-0.1353,-0.1315,-0.1468,-0.137,-0.1653,-0.1486,-0.1503,-0.1476,-0.1505,-0.1288,-0.1292,-0.1295,-0.1297,-0.1298,-0.1647,-0.1609,-0.1631,-0.1592,-0.1574,-0.1522,-0.1481,-0.1482,-0.1458,-0.1424,-0.1427,-0.1333,-0.1306,-0.1151,-0.1074,-0.1049,-0.1164,-0.1156,-0.1173,-0.1194,-0.1196,-0.1206,-0.0935,-0.0936,-0.0938,-0.0939,-0.094,0,-0.1478,-0.146,-0.1417,-0.1352,-0.128,-0.1345,-0.1301,-0.1273,-0.1223,-0.1206,-0.1153,-0.1009,-0.0905,-0.0897,-0.0788,-0.0766,-0.0809,-0.0747,-0.0814,-0.0851,-0.0883,-0.0875,-0.0525,-0.0524,-0.0523,-0.0522,0,0,-0.1383,-0.1274,-0.1249,-0.1094,-0.1074,-0.0988,-0.0966,-0.096,-0.0936,-0.0894,-0.0856,-0.0886,-0.0873,-0.0709,-0.0656,-0.0573,-0.0717,-0.0546,-0.0875,-0.0991,-0.1023,-0.1108,-0.1132,0,0,0,0,0]},{"header":{"parameterUnit":"m.s-1","parameterCategory":2,"la1":30.2991,"la2":30.254,"lo1":-89.0895,"lo2":-89.0444,"dy":0.0017,"dx":0.0017,"nx":28,"ny":28,"refTime":"2025-12-24T03:00:00:Z","depth":"2","parameterNumber":3,"parameterNumberName":"V-component_of_CURRENTS"},"data":[0,0,0,0,0,0,0,0,0,0,0,0,0,0,0,0,0,0,0,0,0,0,0,0,0,0,0,0,0,0,0,0,0,0,0,0,0,0,0,0,0,0,0,0,0,0,0,0,0,0,0,0,0,0,0,0,0,0,-0.0101,-0.0099,0,-0.0007,-0.0007,-0.0007,0.0061,0.0063,0.0065,0.0066,0.0172,0.0173,0.0174,0,0,0,0,0,0,0,0,0,0,0,0,0,-0.0177,-0.0178,-0.0101,-0.0098,-0.0096,-0.0007,-0.0007,-0.0007,0.0061,0.0063,0.0065,0.0067,0.0171,0.0173,0.0174,0,0,0,0,0,0,0,0,0,0,0,0,0,-0.0133,-0.0178,-0.0101,-0.0041,-0.0034,-0.0007,-0.0007,-0.0007,0.006,0.0063,0.0066,0.0068,0.0171,0.0173,0.0174,0.013,0,0,0.0179,0.018,0,0,0,0,0,0,0,0,-0.0136,-0.0132,-0.0053,-0.0045,-0.0037,0.003,0.0006,0.0044,0.006,0.001,0.0066,0.007,0.0132,0.0137,0.0129,0.0135,0.014,0.018,0.0181,0.0181,0.0182,0,0,0,0,0,0,0,-0.0139,-0.0135,-0.0077,-0.005,-0.004,-0.0003,0.0004,0.0012,0.0044,0.0014,0.0023,0.0054,0.0135,0.0127,0.0133,0.0141,0.018,0.0181,0.0182,0.0183,0.0304,0.0306,0,0,0,0,0,0,-0.0129,-0.0139,-0.008,-0.0073,-0.0065,-0.0003,0.0004,-0.0005,0.0044,0.0058,0.0052,0.0057,0.0123,0.0131,0.0137,0.0227,0.0181,0.0183,0.0184,0.0301,0.0304,0.0306,0,0,0,0,0,0,-0.0132,-0.0127,-0.0084,-0.009,-0.008,-0.0004,-0.0016,-0.0005,0.0006,0.0075,0.0087,0.0055,0.0126,0.0135,0.0217,0.0226,0.0184,0.0185,0.0299,0.0302,0.0305,0.0317,0,0,0,0,0,0,-0.0136,-0.013,-0.0139,-0.0091,-0.0079,-0.0065,-0.0016,-0.0004,0.0027,0.0034,0.0081,0.0093,0.0129,0.0214,0.0218,0.0228,0.0186,0.0296,0.03,0.0304,0.0314,0.0321,0.0326,0,0,0,0,0,-0.0139,-0.0165,-0.0141,-0.0132,-0.0094,-0.0064,-0.0058,-0.0001,0.0024,0.0017,0.0104,0.0093,0.0243,0.0218,0.0222,0.0232,0.0294,0.0299,0.0304,0.0311,0.0319,0.0326,0,0,0,0,0,0,-0.0185,-0.0157,-0.0131,-0.0141,-0.0099,-0.0047,-0.0039,-0.0008,0.0043,0.0076,0.0121,0.014,0.022,0.0225,0.0196,0.0285,0.0264,0.027,0.0268,0.0276,0.0282,0.0248,0.0188,0,0,0,0,0,-0.0202,-0.0217,-0.017,-0.0166,-0.0157,-0.0104,-0.0084,-0.0034,0.0027,0.005,0.0111,0.0178,0.0233,0.0258,0.0315,0.0342,0.0337,0.0354,0.036,0.0365,0.0344,0.0395,0.0402,0.0323,0.0323,0.0323,0,0,-0.0197,-0.0192,-0.0188,-0.0176,-0.0145,-0.0131,-0.0089,-0.0045,-0.0002,0.0054,0.014,0.0206,0.0254,0.0324,0.0354,0.033,0.0384,0.0371,0.0375,0.0351,0.0401,0.0408,0.0414,0.0326,0.0326,0.0325,0,0,-0.0222,-0.0215,-0.0246,-0.023,-0.0178,-0.0134,-0.0124,-0.0051,0.0004,0.009,0.0163,0.0247,0.0314,0.037,0.0394,0.0455,0.0428,0.0465,0.0447,0.0497,0.0503,0.0508,0.0491,0.0495,0.0451,0.0451,0.0451,0,-0.0225,-0.0256,-0.024,-0.0268,-0.0235,-0.0144,-0.0141,-0.0083,0.0032,0.0086,0.013,0.0282,0.0333,0.0397,0.0438,0.0463,0.0465,0.0411,0.0501,0.0507,0.0511,0.0493,0.0497,0.0453,0.0452,0.0452,0.0452,0,-0.0278,-0.0292,-0.0304,-0.0307,-0.0277,-0.0247,-0.0159,-0.0099,-0.0003,0.0082,0.0205,0.0303,0.038,0.0416,0.0444,0.0503,0.0482,0.0514,0.0472,0.0519,0.0498,0.0502,0.0454,0.0454,0.0453,0.0453,0,0,-0.0323,-0.034,-0.0345,-0.0349,-0.0287,-0.0268,-0.0195,-0.0105,-0.0065,0.0092,0.0141,0.0293,0.0362,0.0394,0.045,0.0494,0.0539,0.0509,0.0511,0.047,0.06,0.0569,0.0569,0.0589,0.0591,0.0592,0.0561,0,-0.0365,-0.0425,-0.0404,-0.0401,-0.0414,-0.0322,-0.0275,-0.0168,-0.0058,0.0019,0.0162,0.0254,0.0348,0.0382,0.045,0.0505,0.0553,0.0541,0.0578,0.0577,0.0528,0.0575,0.0563,0.0534,0.0565,0.0565,0.0566,0,-0.0448,-0.0466,-0.0492,-0.0467,-0.0463,-0.0436,-0.0353,-0.0287,-0.0153,-0.0069,0.0057,0.0165,0.0264,0.0339,0.0466,0.0451,0.0531,0.0582,0.0583,0.0547,0.0555,0.05,0.0539,0.0571,0.0571,0.057,0.057,0,-0.0523,-0.0534,-0.0547,-0.054,-0.0495,-0.0477,-0.0422,-0.0307,-0.0251,-0.0119,-0.0085,0.0076,0.0137,0.0267,0.0409,0.0435,0.0518,0.0565,0.0615,0.061,0.0601,0.0594,0.0678,0.0678,0.0678,0.0678,0.0678,0,-0.0605,-0.0621,-0.0587,-0.0605,-0.0605,-0.0539,-0.0514,-0.0444,-0.035,-0.0289,-0.0128,-0.0077,0.0132,0.0222,0.0353,0.047,0.0487,0.0602,0.0614,0.0603,0.0597,0.0636,0.0632,0.0677,0.0677,0.0678,0.0678,0,-0.07,-0.0686,-0.0709,-0.0668,-0.0655,-0.0649,-0.0583,-0.0559,-0.0466,-0.0408,-0.0364,-0.0197,-0.0071,0.0099,0.0277,0.0384,0.0503,0.0558,0.0495,0.0501,0.0565,0.0562,0.058,0.0579,0.0578,0.0578,0.0577,0,-0.0754,-0.0781,-0.0766,-0.0771,-0.0752,-0.073,-0.0713,-0.0618,-0.0578,-0.047,-0.0449,-0.0315,-0.0184,0.0015,0.022,0.0402,0.0472,0.0489,0.0565,0.0552,0.0562,0.056,0.0558,0.0544,0.0543,0.0542,0.0541,0,-0.0837,-0.0833,-0.0842,-0.0848,-0.0842,-0.0833,-0.0791,-0.0784,-0.0665,-0.0617,-0.0513,-0.041,-0.0206,0.0012,0.023,0.0348,0.045,0.0479,0.0503,0.0571,0.0516,0.0526,0.0526,0.0535,0.0536,0.0536,0.0537,0.0537,-0.088,-0.0901,-0.0902,-0.09,-0.0903,-0.0884,-0.0875,-0.0823,-0.0763,-0.0637,-0.0556,-0.0377,-0.0197,0.0138,0.0272,0.0402,0.0431,0.05,0.0503,0.0507,0.0509,0.0457,0.046,0.046,0.046,0.0461,0.0461,0,-0.0905,-0.0917,-0.0936,-0.0929,-0.0926,-0.0915,-0.0885,-0.0847,-0.0774,-0.0638,-0.0505,-0.0273,-0.0049,0.0129,0.0333,0.0446,0.0466,0.0459,0.0484,0.0488,0.0493,0.0496,0.0444,0.0444,0.0444,0.0444,0,0,-0.0916,-0.0936,-0.0932,-0.092,-0.0919,-0.0902,-0.0882,-0.0823,-0.0719,-0.0562,-0.0408,-0.022,-0.0012,0.0132,0.0266,0.0366,0.0397,0.0367,0.0371,0.0388,0.0392,0.0506,0.0515,0,0,0,0,0]}],[{"header":{"parameterUnit":"m.s-1","parameterCategory":2,"la1":30.2991,"la2":30.254,"lo1":-89.0895,"lo2":-89.0444,"dy":0.0017,"dx":0.0017,"nx":28,"ny":28,"refTime":"2025-12-24T03:00:00:Z","depth":"4","parameterNumber":2,"parameterNumberName":"U-component_of_CURRENTS"},"data":[0,0,0,0,0,0,0,0,0,0,0,0,0,0,0,0,0,0,0,0,0,0,0,0,0,0,0,0,0,0,0,0,0,0,0,0,0,0,0,0,0,0,0,0,0,0,0,0,0,0,0,0,0,0,0,0,0,0,-0.0902,-0.0903,0,-0.0973,-0.0974,-0.0975,-0.1,-0.0999,-0.0998,-0.0998,-0.1069,-0.1072,-0.1074,0,0,0,0,0,0,0,0,0,0,0,0,0,-0.0812,-0.0813,-0.0902,-0.0903,-0.0903,-0.0973,-0.0974,-0.0975,-0.1,-0.0999,-0.0998,-0.0997,-0.1069,-0.1071,-0.1074,0,0,0,0,0,0,0,0,0,0,0,0,0,-0.0867,-0.0814,-0.0902,-0.0921,-0.0923,-0.0972,-0.0974,-0.0976,-0.1,-0.0999,-0.0998,-0.0997,-0.1068,-0.1071,-0.1075,-0.1117,0,0,-0.1086,-0.1088,0,0,0,0,0,0,0,0,-0.0864,-0.0871,-0.0918,-0.092,-0.0922,-0.0973,-0.0968,-0.1021,-0.1,-0.0975,-0.0998,-0.0997,-0.1035,-0.1042,-0.1063,-0.112,-0.1123,-0.1087,-0.1089,-0.109,-0.1092,0,0,0,0,0,0,0,-0.086,-0.0868,-0.0934,-0.0918,-0.0921,-0.0933,-0.0941,-0.0979,-0.1012,-0.0977,-0.0978,-0.098,-0.1037,-0.1059,-0.1064,-0.1124,-0.1087,-0.109,-0.1092,-0.1094,-0.1227,-0.1229,0,0,0,0,0,0,-0.0844,-0.0864,-0.0932,-0.0936,-0.0886,-0.0935,-0.0944,-0.0961,-0.1012,-0.1018,-0.0981,-0.0981,-0.1053,-0.106,-0.1067,-0.1122,-0.109,-0.1094,-0.1096,-0.1226,-0.1228,-0.1229,0,0,0,0,0,0,-0.0842,-0.085,-0.0929,-0.0897,-0.0908,-0.0937,-0.0957,-0.0962,-0.0996,-0.1014,-0.1021,-0.1009,-0.1053,-0.1062,-0.1102,-0.1125,-0.1096,-0.1099,-0.1224,-0.1227,-0.1228,-0.123,0,0,0,0,0,0,-0.0839,-0.0849,-0.0864,-0.0897,-0.0909,-0.0954,-0.0958,-0.0964,-0.0996,-0.0998,-0.1041,-0.1046,-0.1053,-0.1096,-0.1105,-0.1129,-0.1102,-0.1223,-0.1225,-0.1228,-0.1229,-0.1232,-0.1235,0,0,0,0,0,-0.0836,-0.0852,-0.0865,-0.0873,-0.0927,-0.0954,-0.0962,-0.0982,-0.0999,-0.1011,-0.104,-0.1045,-0.1118,-0.11,-0.1111,-0.1136,-0.1222,-0.1225,-0.1228,-0.1227,-0.1232,-0.1235,0,0,0,0,0,0,-0.0813,-0.0857,-0.0872,-0.0899,-0.0924,-0.0956,-0.0975,-0.0996,-0.1033,-0.1041,-0.1063,-0.107,-0.1108,-0.113,-0.1109,-0.1183,-0.1172,-0.1177,-0.1168,-0.1172,-0.1175,-0.1173,-0.1105,0,0,0,0,0,-0.0817,-0.0845,-0.088,-0.09,-0.0919,-0.0956,-0.0975,-0.0989,-0.102,-0.1038,-0.1067,-0.1103,-0.1131,-0.1155,-0.1178,-0.123,-0.1227,-0.1254,-0.1258,-0.126,-0.1267,-0.1273,-0.1277,-0.1239,-0.1239,-0.1239,0,0,-0.081,-0.084,-0.0853,-0.0898,-0.0927,-0.0955,-0.0967,-0.0997,-0.1013,-0.104,-0.1083,-0.1112,-0.1144,-0.1185,-0.1207,-0.1207,-0.1269,-0.1264,-0.1266,-0.1271,-0.1276,-0.128,-0.1283,-0.1241,-0.124,-0.124,0,0,-0.0804,-0.0844,-0.0865,-0.0895,-0.0936,-0.0961,-0.0973,-0.1019,-0.1032,-0.108,-0.1094,-0.1134,-0.1198,-0.1213,-0.1232,-0.1275,-0.1277,-0.1296,-0.1323,-0.1329,-0.1331,-0.1334,-0.1326,-0.1327,-0.1308,-0.1308,-0.1308,0,-0.0796,-0.0831,-0.0871,-0.0901,-0.093,-0.0966,-0.0994,-0.1013,-0.1061,-0.1079,-0.1091,-0.1179,-0.1207,-0.1245,-0.1268,-0.128,-0.1285,-0.1301,-0.1331,-0.1333,-0.1335,-0.1327,-0.1328,-0.1309,-0.1309,-0.1309,-0.1309,0,-0.0806,-0.084,-0.0857,-0.0914,-0.0948,-0.0977,-0.1011,-0.104,-0.1077,-0.1101,-0.1149,-0.1186,-0.1243,-0.1261,-0.1288,-0.1327,-0.1324,-0.1321,-0.1313,-0.1339,-0.1328,-0.133,-0.1309,-0.1309,-0.1309,-0.1309,0,0,-0.0775,-0.085,-0.086,-0.0887,-0.0962,-0.0986,-0.1021,-0.1063,-0.1092,-0.1132,-0.1174,-0.1229,-0.1263,-0.1287,-0.1315,-0.1337,-0.1362,-0.1355,-0.1355,-0.1335,-0.1373,-0.1283,-0.1276,-0.1369,-0.137,-0.137,-0.1355,0,-0.0774,-0.0826,-0.0871,-0.092,-0.0951,-0.1006,-0.1036,-0.1077,-0.1124,-0.1171,-0.1198,-0.1247,-0.1264,-0.1307,-0.1329,-0.1366,-0.137,-0.1366,-0.1364,-0.1364,-0.1269,-0.1275,-0.1372,-0.1356,-0.1357,-0.1357,-0.1357,0,-0.0775,-0.0809,-0.0859,-0.0927,-0.0949,-0.0984,-0.1061,-0.1086,-0.1147,-0.1191,-0.1243,-0.1276,-0.1327,-0.1331,-0.1372,-0.1376,-0.1379,-0.1387,-0.1386,-0.1303,-0.1276,-0.1331,-0.136,-0.136,-0.136,-0.1359,-0.1359,0,-0.0734,-0.0804,-0.0843,-0.087,-0.0948,-0.098,-0.1022,-0.1094,-0.1122,-0.1201,-0.1254,-0.1301,-0.1342,-0.1356,-0.1389,-0.1393,-0.1416,-0.1412,-0.1313,-0.1306,-0.139,-0.1388,-0.1409,-0.1409,-0.1409,-0.1409,-0.1409,0,-0.0719,-0.0747,-0.0825,-0.0845,-0.0882,-0.0953,-0.1008,-0.1054,-0.1134,-0.1177,-0.1255,-0.1296,-0.1357,-0.1382,-0.1392,-0.1358,-0.1409,-0.1313,-0.1296,-0.1391,-0.139,-0.139,-0.1388,-0.1408,-0.1408,-0.1408,-0.1408,0,-0.0665,-0.0721,-0.0759,-0.084,-0.0861,-0.0887,-0.0982,-0.1022,-0.1108,-0.1172,-0.1198,-0.1299,-0.1332,-0.1358,-0.1387,-0.1349,-0.133,-0.1293,-0.1389,-0.1378,-0.1214,-0.1213,-0.1182,-0.1179,-0.1176,-0.1174,-0.1172,0,-0.0638,-0.0652,-0.0735,-0.0756,-0.0793,-0.0848,-0.0887,-0.0986,-0.1037,-0.116,-0.1181,-0.1247,-0.13,-0.1258,-0.1298,-0.1269,-0.1251,-0.1229,-0.1226,-0.1204,-0.1192,-0.1195,-0.1197,-0.1167,-0.1167,-0.1166,-0.1165,0,-0.0571,-0.0613,-0.0646,-0.0695,-0.074,-0.0787,-0.0855,-0.0884,-0.1,-0.1088,-0.1137,-0.1155,-0.1184,-0.1198,-0.1178,-0.1161,-0.1247,-0.1199,-0.1205,-0.1202,-0.1186,-0.1177,-0.1182,-0.1156,-0.1157,-0.1158,-0.1158,0,-0.0518,-0.0526,-0.0584,-0.0624,-0.0677,-0.0718,-0.0766,-0.0832,-0.0885,-0.1025,-0.1032,-0.1106,-0.1174,-0.1139,-0.1128,-0.11,-0.1082,-0.105,-0.1063,-0.1074,-0.1046,-0.101,-0.0906,0,0,0,0,0,-0.046,-0.0476,-0.0509,-0.0561,-0.0621,-0.0655,-0.0743,-0.0802,-0.0915,-0.0917,-0.0973,-0.0994,-0.0996,-0.1032,-0.0977,-0.1066,-0.1078,-0.0998,-0.1046,-0.1101,-0.1113,-0.1089,0,0,0,0,0,0,-0.0424,-0.0455,-0.0485,-0.051,-0.0532,-0.0593,-0.0646,-0.0722,-0.0737,-0.0845,-0.0848,-0.0921,-0.0931,-0.1001,-0.0951,-0.0958,-0.0966,-0.1036,-0.1033,-0.1095,-0.1105,-0.1114,-0.1094,0,0,0,0,0]},{"header":{"parameterUnit":"m.s-1","parameterCategory":2,"la1":30.2991,"la2":30.254,"lo1":-89.0895,"lo2":-89.0444,"dy":0.0017,"dx":0.0017,"nx":28,"ny":28,"refTime":"2025-12-24T03:00:00:Z","depth":"4","parameterNumber":3,"parameterNumberName":"V-component_of_CURRENTS"},"data":[0,0,0,0,0,0,0,0,0,0,0,0,0,0,0,0,0,0,0,0,0,0,0,0,0,0,0,0,0,0,0,0,0,0,0,0,0,0,0,0,0,0,0,0,0,0,0,0,0,0,0,0,0,0,0,0,0,0,-0.0331,-0.033,0,-0.0317,-0.0317,-0.0317,-0.0294,-0.0294,-0.0293,-0.0293,-0.023,-0.0229,-0.0227,0,0,0,0,0,0,0,0,0,0,0,0,0,-0.0319,-0.0319,-0.0331,-0.033,-0.033,-0.0317,-0.0317,-0.0317,-0.0294,-0.0294,-0.0293,-0.0293,-0.023,-0.0229,-0.0227,0,0,0,0,0,0,0,0,0,0,0,0,0,-0.0317,-0.032,-0.0331,-0.0317,-0.0315,-0.0317,-0.0317,-0.0317,-0.0295,-0.0294,-0.0293,-0.0292,-0.0231,-0.0229,-0.0227,-0.023,0,0,-0.0222,-0.0221,0,0,0,0,0,0,0,0,-0.0317,-0.0318,-0.0319,-0.0318,-0.0316,-0.0306,-0.029,-0.0285,-0.0295,-0.0303,-0.0293,-0.0292,-0.0251,-0.0247,-0.0248,-0.0227,-0.0225,-0.0221,-0.022,-0.0219,-0.0219,0,0,0,0,0,0,0,-0.0318,-0.0318,-0.0326,-0.0319,-0.0317,-0.0305,-0.0304,-0.0289,-0.0281,-0.0302,-0.0301,-0.0298,-0.025,-0.025,-0.0246,-0.0224,-0.0221,-0.022,-0.0219,-0.0218,-0.0212,-0.0213,0,0,0,0,0,0,-0.032,-0.0319,-0.0326,-0.0326,-0.0314,-0.0306,-0.0305,-0.0311,-0.0282,-0.0277,-0.0299,-0.0297,-0.0253,-0.0248,-0.0244,-0.0255,-0.0219,-0.0218,-0.0217,-0.0211,-0.0212,-0.0213,0,0,0,0,0,0,-0.032,-0.0321,-0.0327,-0.032,-0.032,-0.0307,-0.0313,-0.0311,-0.031,-0.028,-0.0274,-0.03,-0.0253,-0.0246,-0.0239,-0.0252,-0.0217,-0.0215,-0.021,-0.0212,-0.0213,-0.0272,0,0,0,0,0,0,-0.032,-0.0321,-0.0331,-0.0321,-0.0321,-0.0338,-0.0314,-0.0311,-0.0309,-0.0307,-0.0279,-0.0273,-0.0252,-0.0242,-0.0237,-0.0249,-0.0214,-0.0209,-0.0211,-0.0212,-0.0268,-0.0275,-0.028,0,0,0,0,0,-0.0319,-0.0337,-0.0332,-0.0333,-0.0334,-0.0339,-0.0338,-0.0326,-0.031,-0.032,-0.03,-0.0274,-0.025,-0.0241,-0.0235,-0.0247,-0.0208,-0.021,-0.0212,-0.0266,-0.0274,-0.028,0,0,0,0,0,0,-0.0337,-0.0336,-0.033,-0.0346,-0.0347,-0.0335,-0.0342,-0.033,-0.0323,-0.0318,-0.0284,-0.0278,-0.0281,-0.0256,-0.0248,-0.0252,-0.0225,-0.0226,-0.0268,-0.0275,-0.028,-0.0268,-0.0212,0,0,0,0,0,-0.0346,-0.036,-0.0353,-0.0368,-0.0368,-0.0355,-0.0356,-0.0349,-0.0338,-0.0334,-0.0316,-0.0296,-0.0287,-0.0274,-0.0267,-0.0262,-0.0214,-0.0267,-0.0273,-0.0278,-0.0265,-0.0218,-0.0217,-0.022,-0.022,-0.022,0,0,-0.036,-0.0358,-0.0369,-0.0373,-0.037,-0.038,-0.0354,-0.0361,-0.0368,-0.0328,-0.0333,-0.0321,-0.0294,-0.0298,-0.0295,-0.0274,-0.0252,-0.028,-0.0285,-0.0269,-0.022,-0.0219,-0.0218,-0.0222,-0.0222,-0.0221,0,0,-0.0388,-0.039,-0.0408,-0.041,-0.0408,-0.0404,-0.0406,-0.0401,-0.0396,-0.0402,-0.0378,-0.037,-0.0356,-0.0337,-0.0325,-0.0356,-0.0294,-0.0358,-0.0365,-0.032,-0.0319,-0.0317,-0.0254,-0.0246,-0.035,-0.035,-0.035,0,-0.0403,-0.0421,-0.0415,-0.0426,-0.043,-0.0415,-0.0431,-0.0429,-0.0423,-0.0419,-0.0413,-0.0388,-0.0373,-0.0356,-0.0371,-0.0368,-0.0322,-0.0341,-0.0326,-0.0324,-0.0321,-0.0256,-0.0246,-0.0353,-0.0353,-0.0352,-0.0352,0,-0.0435,-0.0452,-0.0462,-0.0472,-0.0479,-0.0491,-0.0484,-0.0492,-0.0484,-0.0475,-0.0468,-0.0444,-0.042,-0.0424,-0.0406,-0.0383,-0.035,-0.0348,-0.0305,-0.0324,-0.0255,-0.0244,-0.0357,-0.0356,-0.0355,-0.0355,0,0,-0.0456,-0.0482,-0.0484,-0.0496,-0.0502,-0.051,-0.0524,-0.0527,-0.0523,-0.0519,-0.0505,-0.0497,-0.0471,-0.0454,-0.0427,-0.0387,-0.0339,-0.0358,-0.0354,-0.0288,-0.0217,-0.021,-0.0197,-0.033,-0.0328,-0.0327,-0.0175,0,-0.048,-0.0516,-0.0519,-0.0552,-0.0568,-0.0562,-0.0572,-0.0572,-0.0562,-0.0549,-0.0515,-0.0498,-0.0484,-0.0467,-0.0428,-0.036,-0.0312,-0.0379,-0.0213,-0.0207,-0.0194,-0.0185,-0.0323,-0.0166,-0.0164,-0.0162,-0.016,0,-0.0502,-0.0523,-0.0565,-0.0586,-0.0591,-0.0609,-0.0611,-0.0619,-0.0596,-0.058,-0.0549,-0.0517,-0.0459,-0.0451,-0.0322,-0.0361,-0.0293,-0.0238,-0.0231,-0.0192,-0.0181,-0.0144,-0.014,-0.0141,-0.0143,-0.0144,-0.0146,0,-0.0511,-0.0549,-0.0586,-0.0595,-0.0621,-0.0634,-0.0643,-0.0632,-0.0631,-0.0594,-0.0574,-0.0505,-0.0456,-0.037,-0.0262,-0.0285,-0.0109,-0.0127,-0.0051,-0.0049,-0.0073,-0.0077,-0.0036,-0.0036,-0.0037,-0.0037,-0.0037,0,-0.0526,-0.0553,-0.0598,-0.0615,-0.0647,-0.0655,-0.067,-0.0664,-0.0647,-0.0629,-0.0587,-0.0537,-0.0433,-0.0328,-0.0242,-0.0098,-0.0087,-0.0037,-0.0009,-0.0102,-0.0111,-0.0064,-0.007,-0.0031,-0.0033,-0.0034,-0.0035,0,-0.053,-0.0561,-0.0604,-0.0643,-0.0656,-0.0679,-0.0695,-0.0695,-0.0675,-0.0645,-0.0632,-0.0541,-0.0397,-0.0281,-0.0117,-0.0063,0.0063,0.0107,0.0027,0.0045,0.009,0.0079,0.0209,0.021,0.0212,0.0213,0.0214,0,-0.0534,-0.0563,-0.0624,-0.0646,-0.0667,-0.0698,-0.0709,-0.071,-0.0703,-0.0637,-0.0614,-0.0485,-0.0408,-0.0149,-0.0049,0.0135,0.0139,0.0205,0.0116,0.0101,0.0115,0.0103,0.0091,0.0216,0.0216,0.0216,0.0217,0,-0.0541,-0.0572,-0.0604,-0.0651,-0.0681,-0.0707,-0.0721,-0.0716,-0.0696,-0.0681,-0.0563,-0.0448,-0.0282,-0.0125,0.0025,0.014,0.0159,0.0218,0.0215,0.0132,0.0111,0.0121,0.0108,0.0221,0.022,0.022,0.022,0,-0.0537,-0.0563,-0.0608,-0.0644,-0.0685,-0.07,-0.0709,-0.0678,-0.0667,-0.0599,-0.0552,-0.0392,-0.0302,-0.0118,0.0016,0.0137,0.014,0.0149,0.0149,0.0146,0.0059,0.0019,0.0141,0,0,0,0,0,-0.0525,-0.0553,-0.059,-0.0632,-0.0674,-0.0695,-0.0707,-0.0709,-0.0688,-0.06,-0.0576,-0.0421,-0.0214,-0.0127,-0.0002,0.0011,0.0142,0.0157,0.0148,0.0246,0.0241,0.0147,0,0,0,0,0,0,-0.0517,-0.0557,-0.0582,-0.0617,-0.0642,-0.0679,-0.0687,-0.0674,-0.062,-0.0581,-0.0462,-0.041,-0.0204,-0.0276,-0.0002,0.0031,0.0036,0.0251,0.0253,0.0249,0.0244,0.024,0.0142,0,0,0,0,0]}]]